Weather in Chengdu

China     30°39′51″N   104°04′31″E
temp.,
°C
wind,
m/s
gust,
m/s
humid.,
%
clouds,
%
prec.,
mm/h
press.,
hPa
HPBL,
m
15 august, mon
mon1523:00+27nw238372 1.7 100372
02:00+26w228893 4.7 100333
05:00+25wsw2288100 0.7 100248
08:00+26wsw1284100 0.8 1003104
11:00+32sw1161100 0.0 1004476
14:00+35wsw1150100 0.0 10021525
17:00+34w1255100 0.9 10001375
20:00+29w2375100 1.8 100163
16 august, tue
tue1623:00+26nnw2488100 1.8 100397
02:00+26w1184100 2.6 100212
05:00+25wnw228262 0.0 100245
08:00+27wnw1174100 0.0 100386
11:00+32n1160100 0.0 1003558
14:00+34se2251100 0.1 10001667
17:00+32s2261100 0.4 999779
20:00+30nw117168 1.3 100016
17 august, wed
wed1723:00+27nw238827 2.5 100250
02:00+26n1186100 3.0 100122
05:00+25nnw1186100 0.1 100014
08:00+26n1287100 0.7 100169
11:00+28nnw127499 0.2 1001219
14:00+34ese2253100 0.8 9981449
17:00+33s1257100 2.1 997980
20:00+28nw227973 4.6 99844
18 august, thu
thu1823:00+26nnw2287100 2.3 100051
02:00+26nnw1185100 2.6 99931
05:00+26nne1186100 1.3 99823
08:00+26n2488100 1.6 999142
11:00+26nne2586100 0.2 1000211
14:00+28nne248097 0.3 999242
17:00+30nne3474100 2.8 998407
20:00+27nne3586100 9.1 100072
19 august, fri
fri1923:00+25n2695100 8.1 1002154
02:00+24nnw2697100 16.3 1002199
05:00+24n2597100 9.1 1002166
08:00+25n2391100 9.9 1003170
11:00+29ne2372100 0.3 1003737
14:00+31ne2265100 0.6 10011113
17:00+32ne226499 0.2 9991193
20:00+27n2287100 3.8 100127